ONEWEB-0098, 45442

Orbit data source: Space-Track

ONEWEB-0098, 45442 is a payload satellite owned by One Web (UK) in LEO that was launched on Sat, 21 Mar 2020 UTC via a SOYUZ-2-1B launch vehicle from the Tyuratam Missile And Space Complex (TTMTR). Payload-class satellites include a variety of spacecraft equipped with specific instruments for various scientific and technological missions. These include communications satellites like Starlink; space stations such as the ISS; scientific satellites like the Hubble; Earth observation satellites from companies like Planet Labs, Umbra, and HawkEye 360; GPS; miniature CubeSats for education and research; and military/defense satellites.

Loading next visibility...
Identifier
45442, 2020-020U
Orbit
LEO
Country
Flag of UKUK
Related business
Manufacturer
One Web
Mission
Operational Commercial Communications
Bus & Motor
ARROW, Unknown motor
Mass
148 kg wet, ~140 kg dry
Launch date (UTC)
2020-03-21 (6 years ago)
Launch vehicle
SOYUZ-2-1B
Launch site
Tyuratam Missile And Space Complex (TTMTR)
Object type
Payload
Rocket body
Debris
Shape & HBR
Trap Box + 2 Pan, 6.7 m
Radar Cross Section
3.464 m², Large (>1 m²)

Expand to show TLE details & history
Last TLE update: 11 hours ago

TLE from 11 hours ago
0 ONEWEB-0098
1 45442U 20020U   25353.21092274 -.00000512  00000-0 -14817-2 0  9991
2 45442  87.8857  56.9006 0001714 100.4275 259.7046 13.11415075279056
Epoch: 2025-12-19T05:03Z
TLE epoch observation values (Epoch: 2025-12-19T05:03:43.724Z)
Latitude
-0.00005°
Longitude
-107.08692°
Altitude
1,220.812 km
Speed
7.244 km/s
True Right ascension
03h 47m 36s
True Declination
0° 00' 00"
Sunlit
Object was in full shadow at epoch
Visualization orbit readout
Latitude
Unknown
Longitude
Unknown
Altitude
Unknown
Speed
Unknown
Apparent Right ascension
Unknown
Apparent Declination
Unknown
Sunlit
N/A
Visualization observer readout
Local Sidereal Time
14:39:55
Azimuth
Unknown
Elevation
Unknown
Doppler factor
Unknown
Orbital elements
Apogee altitude
1,216.11 km
Perigee altitude
1,213.507 km
Semi-major axis
7,592.945 km
Eccentricity
0.00017
Inclination
87.8857°
RAAN
56.9006°
Arg. of periapsis
100.4275°
True anomaly
259.68528°
Mean anomaly
259.7046°
Eccentric anomaly
259.69494°
Mean motion
3.28041 °/min
Orbital period
109.74 mins
BSTAR
-0.0014817
Loading maneuver chart data...
Computing Atmospheric mass density...
Loading historical data...
Loading historical data...
Loading historical data...
Loading historical data...
Loading historical data...
Loading historical data...
Loading historical data...

Documentation

Showing up to 5 results
|